period_start,C,m1,H,J0,J1,J2,J3,J4,J5,JA,JB,JC,JD,JJ,JK,JN,#
2015-05-01 00:00:24,0.01,1.83,0.00,23.63,27.10,29.67,4.79,26.51,1017.69,2033.96,2666.00,2823.15,3068.94,350.38,347.51,19.24,0000 0000 0000 0000 000000
2015-05-01 00:05:25,0.01,1.83,0.00,23.65,27.10,29.71,4.70,26.52,1017.86,2033.98,2665.98,2823.02,3068.82,349.41,346.84,19.27,0000 0000 0000 0000 000000
2015-05-01 00:10:27,0.03,1.83,0.00,23.63,27.10,29.74,4.67,26.46,1017.99,2033.98,2665.78,2823.01,3068.59,349.98,347.56,19.30,0000 0000 0000 0000 000000
2015-05-01 00:15:28,0.01,1.83,0.00,23.57,27.11,29.73,4.79,26.59,1018.03,2033.96,2665.32,2823.00,3068.11,350.11,347.65,19.33,0000 0000 0000 0000 000000
2015-05-01 00:20:29,0.01,1.84,0.00,23.51,27.12,29.75,4.89,26.63,1018.07,2033.94,2665.14,2823.00,3068.01,350.46,348.03,19.35,0000 0000 0000 0000 000000
2015-05-01 00:25:30,-0.02,1.83,0.00,23.44,27.12,29.76,4.78,26.66,1018.08,2033.87,2665.00,2823.00,3068.00,349.57,347.25,19.38,0000 0000 0000 0000 000000
2015-05-01 00:30:31,0.00,1.83,0.00,23.48,27.12,29.75,4.78,26.57,1018.08,2033.78,2664.98,2822.76,3067.99,350.32,347.71,19.41,0000 0000 0000 0000 000000
2015-05-01 00:35:33,0.02,1.84,0.00,23.53,27.12,29.77,4.74,26.60,1018.08,2033.74,2664.86,2822.26,3067.98,349.81,347.28,19.44,0000 0000 0000 0000 000000
2015-05-01 00:40:34,0.04,1.84,0.00,23.42,27.12,29.76,4.78,26.58,1018.08,2033.68,2664.73,2822.05,3067.84,349.89,347.43,19.47,0000 0000 0000 0000 000000
2015-05-01 00:45:36,0.02,1.84,0.00,23.48,27.12,29.75,4.65,26.49,1018.08,2033.75,2664.39,2822.03,3067.44,349.32,346.90,19.50,0000 0000 0000 0000 000000
2015-05-01 00:50:37,0.02,1.84,0.00,23.49,27.12,29.76,4.80,26.43,1018.09,2033.79,2664.14,2822.01,3067.12,350.14,347.88,19.53,0000 0000 0000 0000 000000
2015-05-01 00:55:38,-0.03,1.84,0.00,23.40,27.12,29.74,4.76,26.56,1018.09,2033.62,2664.00,2822.00,3067.02,349.78,347.56,19.56,0000 0000 0000 0000 000000
2015-05-01 01:00:39,-0.00,1.84,0.00,23.45,27.12,29.73,4.83,26.52,1018.11,2033.44,2664.00,2822.00,3067.00,350.21,347.78,19.59,0000 0000 0000 0000 000000
2015-05-01 01:05:40,-0.02,1.84,0.00,23.52,27.12,29.73,4.87,26.62,1018.21,2033.32,2663.97,2821.98,3067.00,349.96,347.66,19.62,0000 0000 0000 0000 000000
2015-05-01 01:10:41,0.02,1.84,0.00,23.44,27.12,29.70,4.75,26.55,1018.46,2033.32,2663.71,2821.92,3066.96,349.61,347.41,19.65,0000 0000 0000 0000 000000
2015-05-01 01:15:43,0.01,1.84,0.00,23.42,27.12,29.72,4.75,26.63,1018.53,2033.30,2663.11,2821.68,3066.92,349.16,346.90,19.68,0000 0000 0000 0000 000000
2015-05-01 01:20:44,0.02,1.84,0.00,23.43,27.12,29.74,4.76,26.77,1018.54,2033.40,2663.03,2821.55,3066.87,349.67,347.51,19.71,0000 0000 0000 0000 000000
2015-05-01 01:25:45,0.01,1.84,0.00,23.25,27.12,29.76,4.78,26.75,1018.49,2033.20,2663.00,2821.16,3066.39,349.96,347.96,19.74,0000 0000 0000 0000 000000
2015-05-01 01:30:46,-0.00,1.84,0.00,23.12,27.12,29.83,4.82,26.73,1018.54,2033.12,2662.99,2821.03,3066.07,350.07,348.49,19.76,0000 0000 0000 0000 000000
2015-05-01 01:35:48,0.01,1.84,0.00,23.06,27.12,29.86,4.83,26.71,1018.57,2033.18,2662.97,2821.04,3066.05,350.19,348.26,19.79,0000 0000 0000 0000 000000
2015-05-01 01:40:49,0.03,1.84,0.00,22.96,27.10,29.86,4.79,26.77,1018.56,2033.18,2662.93,2821.01,3066.02,349.91,348.19,19.82,0000 0000 0000 0000 000000
2015-05-01 01:45:50,0.01,1.84,0.00,23.09,27.10,29.84,4.71,26.71,1018.55,2033.30,2662.95,2821.01,3066.02,349.75,347.93,19.85,0000 0000 0000 0000 000000
2015-05-01 01:50:52,0.04,1.84,0.00,23.31,27.10,29.75,4.75,26.73,1018.56,2033.53,2662.97,2821.01,3066.03,349.82,347.63,19.88,0000 0000 0000 0000 000000
2015-05-01 01:55:53,-0.01,1.84,0.00,23.43,27.10,29.75,4.75,26.64,1018.56,2033.55,2662.79,2821.00,3066.01,349.75,347.56,19.91,0000 0000 0000 0000 000000
2015-05-01 02:00:54,0.01,1.84,0.00,23.42,27.10,29.88,4.74,26.70,1018.57,2033.44,2662.22,2821.00,3066.00,349.67,347.42,19.94,0000 0000 0000 0000 000000
2015-05-01 02:05:55,0.03,1.84,0.00,23.52,27.10,29.88,4.74,26.68,1018.57,2033.69,2662.06,2821.00,3066.00,349.96,347.84,19.97,0000 0000 0000 0000 000000
2015-05-01 02:10:57,0.00,1.84,0.00,23.50,27.12,29.89,4.75,26.57,1018.57,2033.62,2662.01,2820.99,3065.99,349.78,347.78,20.00,0000 0000 0000 0000 000000
2015-05-01 02:15:58,-0.03,1.84,0.00,23.50,27.12,29.87,4.79,26.73,1018.57,2033.48,2662.00,2820.97,3065.96,349.86,347.42,20.03,0000 0000 0000 0000 000000
2015-05-01 02:21:00,-0.00,1.84,0.00,23.52,27.12,29.85,4.74,26.66,1018.59,2033.42,2661.99,2820.93,3065.93,350.00,347.62,20.06,0000 0000 0000 0000 000000
2015-05-01 02:26:01,0.01,1.84,0.00,23.54,27.12,29.84,4.84,26.72,1018.58,2033.41,2661.98,2820.73,3065.57,350.11,347.67,20.09,0000 0000 0000 0000 000000
2015-05-01 02:31:02,-0.00,1.84,0.00,23.37,27.12,29.92,4.78,26.63,1018.60,2033.36,2661.92,2820.59,3065.47,350.03,347.95,20.12,0000 0000 0000 0000 000000
2015-05-01 02:36:03,0.04,1.84,0.00,23.25,27.12,29.98,4.76,26.71,1018.59,2033.25,2661.46,2820.15,3065.13,349.98,348.15,20.15,0000 0000 0000 0000 000000
2015-05-01 02:41:04,0.01,1.84,0.00,23.20,27.12,30.03,4.75,26.73,1018.60,2033.22,2661.05,2820.06,3065.03,349.58,347.70,20.17,0000 0000 0000 0000 000000
2015-05-01 02:46:05,0.04,1.84,0.00,23.11,27.12,29.98,4.80,26.80,1018.61,2033.39,2661.04,2820.05,3065.04,349.87,347.95,20.20,0000 0000 0000 0000 000000
2015-05-01 02:51:06,-0.01,1.84,0.00,23.09,27.12,29.94,4.83,26.63,1018.60,2033.28,2661.00,2820.01,3065.01,349.98,348.06,20.23,0000 0000 0000 0000 000000
2015-05-01 02:56:08,0.03,1.84,0.00,23.31,27.12,29.90,4.83,26.55,1018.60,2033.42,2661.00,2820.01,3065.00,350.34,348.40,20.26,0000 0000 0000 0000 000000
2015-05-01 03:01:09,-0.01,1.84,0.00,23.49,27.12,29.87,4.84,26.57,1018.68,2033.46,2661.00,2820.00,3065.00,350.80,348.52,20.29,0000 0000 0000 0000 000000
2015-05-01 03:06:10,0.01,1.84,0.00,23.48,27.12,29.88,4.80,26.54,1018.93,2033.40,2661.00,2820.00,3065.00,349.99,348.00,20.32,0000 0000 0000 0000 000000
2015-05-01 03:11:11,-0.02,1.85,0.00,23.59,27.13,29.90,4.89,26.63,1019.01,2033.40,2660.96,2820.00,3065.00,350.44,348.64,20.35,0000 0000 0000 0000 000000
2015-05-01 03:16:12,0.00,1.84,0.00,23.58,27.15,29.93,4.73,26.55,1019.04,2033.26,2660.75,2819.99,3064.93,350.22,348.16,20.38,0000 0000 0000 0000 000000
2015-05-01 03:21:13,0.02,1.84,0.00,23.46,27.15,29.96,4.71,26.47,1019.05,2033.24,2660.23,2819.97,3064.74,349.88,347.86,20.41,0000 0000 0000 0000 000000
2015-05-01 03:26:15,0.01,1.85,0.00,23.31,27.15,30.01,4.85,26.58,1019.06,2033.11,2660.03,2819.73,3064.27,350.24,348.48,20.44,0000 0000 0000 0000 000000
2015-05-01 03:31:16,0.02,1.85,0.00,23.30,27.15,30.04,4.81,26.48,1019.06,2033.08,2660.00,2819.30,3064.04,350.30,348.80,20.47,0000 0000 0000 0000 000000
2015-05-01 03:36:17,0.01,1.85,0.00,23.23,27.15,30.05,4.77,26.60,1019.06,2033.04,2659.90,2819.05,3064.00,349.71,348.23,20.50,0000 0000 0000 0000 000000
2015-05-01 03:41:18,0.01,1.85,0.00,23.16,27.15,30.02,4.84,26.53,1019.07,2033.04,2659.77,2819.00,3064.00,350.37,348.59,20.53,0000 0000 0000 0000 000000
2015-05-01 03:46:20,0.01,1.85,0.00,23.10,27.15,29.97,4.76,26.33,1019.08,2033.02,2659.46,2819.00,3064.00,349.67,348.08,20.56,0000 0000 0000 0000 000000
2015-05-01 03:51:21,0.00,1.85,0.00,23.16,27.15,29.95,4.71,26.49,1019.08,2033.03,2659.27,2819.00,3064.00,349.29,347.56,20.58,0000 0000 0000 0000 000000
2015-05-01 03:56:22,0.01,1.85,0.00,23.38,27.15,29.91,4.77,26.63,1019.08,2033.05,2659.10,2818.99,3063.97,349.79,347.85,20.61,0000 0000 0000 0000 000000
2015-05-01 04:01:23,0.00,1.85,0.00,23.54,27.15,29.92,4.76,26.58,1019.10,2033.03,2659.03,2818.98,3063.88,349.70,347.71,20.64,0000 0000 0000 0000 000000
2015-05-01 04:06:25,0.01,1.85,0.00,23.56,27.17,29.95,4.78,26.48,1019.21,2033.03,2659.00,2818.97,3063.54,349.98,347.85,20.67,0000 0000 0000 0000 000000
2015-05-01 04:11:26,0.01,1.85,0.00,23.65,27.17,29.96,4.76,26.51,1019.40,2033.02,2659.00,2818.85,3063.13,349.83,347.64,20.70,0000 0000 0000 0000 000000
2015-05-01 04:16:27,0.05,1.85,0.00,23.49,27.18,30.02,4.85,26.52,1019.51,2033.02,2658.76,2818.30,3063.03,350.25,348.33,20.73,0000 0000 0000 0000 000000
2015-05-01 04:21:28,0.04,1.85,0.00,23.37,27.20,30.03,4.79,26.49,1019.54,2033.01,2657.96,2817.99,3062.73,349.46,347.68,20.76,0000 0000 0000 0000 000000
2015-05-01 04:26:29,0.11,1.85,0.00,23.35,27.20,30.10,4.83,26.53,1019.55,2033.01,2656.99,2817.24,3061.99,349.94,348.09,20.79,0000 0000 0000 0000 000000
2015-05-01 04:31:31,0.10,1.86,0.00,23.29,27.20,30.11,4.84,26.56,1019.55,2033.02,2656.06,2816.61,3061.17,350.37,348.48,20.82,0000 0000 0000 0000 000000
2015-05-01 04:36:32,0.04,1.86,0.00,23.23,27.20,30.07,4.79,26.65,1019.55,2033.00,2655.30,2816.02,3060.89,349.93,348.47,20.85,0000 0000 0000 0000 000000
2015-05-01 04:41:33,0.02,1.86,0.00,23.17,27.20,30.05,4.86,26.59,1019.55,2033.00,2654.98,2816.00,3060.17,350.30,348.65,20.88,0000 0000 0000 0000 000000
2015-05-01 04:46:35,0.05,1.86,0.00,23.15,27.20,30.02,4.79,26.58,1019.55,2033.01,2654.37,2815.77,3060.00,350.15,348.61,20.91,0000 0000 0000 0000 000000
2015-05-01 04:51:36,0.03,1.86,0.00,23.11,27.20,30.03,4.76,26.58,1019.55,2033.00,2653.99,2815.09,3059.91,349.70,348.18,20.94,0000 0000 0000 0000 000000
2015-05-01 04:56:37,0.02,1.86,0.00,23.21,27.20,30.01,4.82,26.61,1019.55,2033.00,2653.96,2815.00,3059.30,350.00,348.36,20.97,0000 0000 0000 0000 000000
2015-05-01 05:01:38,0.02,1.86,0.00,23.44,27.20,30.00,4.71,26.52,1019.55,2033.00,2653.75,2815.00,3059.09,349.81,348.00,20.99,0000 0000 0000 0000 000000
2015-05-01 05:06:39,0.01,1.86,0.00,23.54,27.20,29.99,4.70,26.67,1019.55,2033.00,2653.16,2814.99,3059.01,350.14,348.21,21.02,0000 0000 0000 0000 000000
2015-05-01 05:11:41,0.02,1.86,0.00,23.64,27.21,29.95,4.84,26.56,1019.57,2033.00,2652.99,2814.73,3058.98,350.45,348.21,21.05,0000 0000 0000 0000 000000
2015-05-01 05:16:42,0.04,1.87,0.00,23.67,27.22,29.97,4.76,26.65,1019.56,2033.00,2652.85,2814.21,3058.72,349.88,347.85,21.08,0000 0000 0000 0000 000000
2015-05-01 05:21:44,0.05,1.87,0.00,23.56,27.22,30.00,4.87,26.54,1019.59,2033.00,2652.15,2814.00,3058.13,350.51,348.59,21.11,0000 0000 0000 0000 000000
2015-05-01 05:26:45,0.00,1.87,0.00,23.45,27.24,30.08,4.71,26.53,1019.62,2032.99,2652.00,2813.99,3058.00,349.54,347.58,21.14,0000 0000 0000 0000 000000
2015-05-01 05:31:46,0.10,1.87,0.00,23.45,27.25,30.11,4.83,26.65,1019.68,2032.99,2651.37,2813.57,3057.62,350.70,348.73,21.17,0000 0000 0000 0000 000000
2015-05-01 05:36:47,0.19,1.88,0.00,23.39,27.25,30.13,4.87,26.63,1019.88,2032.99,2649.19,2812.01,3056.05,350.10,348.44,21.20,0000 0000 0000 0000 000000
2015-05-01 05:41:48,0.24,1.88,0.00,23.33,27.24,30.12,4.79,26.59,1019.98,2032.99,2646.90,2810.50,3054.40,350.22,348.74,21.23,0000 0000 0000 0000 000000
2015-05-01 05:46:50,0.14,1.89,0.00,23.30,27.24,30.10,4.78,26.71,1020.00,2032.99,2645.03,2809.10,3053.06,350.15,348.68,21.26,0000 0000 0000 0000 000000
2015-05-01 05:51:51,0.05,1.89,0.00,23.27,27.24,30.10,4.87,26.61,1020.02,2032.99,2644.20,2808.98,3052.57,350.36,348.60,21.29,0000 0000 0000 0000 000000
2015-05-01 05:56:52,0.00,1.89,0.00,23.24,27.23,30.08,4.89,26.55,1020.02,2032.99,2644.04,2808.96,3052.20,350.19,348.73,21.32,0000 0000 0000 0000 000000
2015-05-01 06:01:53,0.01,1.89,0.00,23.22,27.22,30.09,4.89,26.53,1020.03,2032.99,2644.00,2808.89,3052.07,350.64,348.99,21.35,0000 0000 0000 0000 000000
2015-05-01 06:06:55,0.01,1.89,0.00,23.22,27.22,30.05,4.78,26.59,1020.03,2032.99,2644.00,2808.66,3052.02,349.30,348.15,21.38,0000 0000 0000 0000 000000
2015-05-01 06:11:56,0.02,1.89,0.00,23.29,27.22,30.02,4.71,26.65,1020.03,2032.99,2644.00,2808.36,3052.00,349.67,348.63,21.40,0000 0000 0000 0000 000000
2015-05-01 06:16:57,0.01,1.89,0.00,23.55,27.23,30.03,4.78,26.59,1020.04,2032.99,2643.99,2808.14,3052.00,350.19,348.40,21.43,0000 0000 0000 0000 000000
2015-05-01 06:21:59,0.01,1.89,0.00,23.72,27.25,30.01,4.78,26.47,1020.04,2032.99,2643.97,2808.04,3052.00,350.09,347.94,21.46,0000 0000 0000 0000 000000
2015-05-01 06:27:00,0.02,1.89,0.00,23.64,27.25,30.07,4.71,26.40,1020.04,2032.99,2643.63,2808.01,3051.98,349.40,347.56,21.49,0000 0000 0000 0000 000000
2015-05-01 06:32:01,0.02,1.89,0.00,23.53,27.27,30.09,4.79,26.50,1020.05,2032.98,2643.08,2808.00,3051.69,349.75,347.98,21.52,0000 0000 0000 0000 000000
2015-05-01 06:37:03,0.01,1.89,0.00,23.56,27.27,30.09,4.73,26.51,1020.07,2032.98,2642.99,2807.98,3051.22,349.88,348.09,21.55,0000 0000 0000 0000 000000
2015-05-01 06:42:04,0.01,1.89,0.00,23.51,27.27,30.11,4.79,26.38,1020.09,2032.98,2642.97,2807.91,3051.01,349.66,347.76,21.58,0000 0000 0000 0000 000000
2015-05-01 06:47:05,0.05,1.90,0.00,23.47,27.27,30.13,4.77,26.40,1020.09,2032.94,2642.41,2807.34,3051.00,349.84,348.36,21.61,0000 0000 0000 0000 000000
2015-05-01 06:52:06,0.02,1.90,0.00,23.46,27.27,30.13,4.75,26.44,1020.18,2032.93,2642.02,2807.04,3050.97,350.02,348.28,21.64,0000 0000 0000 0000 000000
2015-05-01 06:57:08,0.02,1.90,0.00,23.43,27.27,30.14,4.74,26.44,1020.34,2032.97,2641.98,2807.00,3050.60,350.19,348.53,21.67,0000 0000 0000 0000 000000
2015-05-01 07:02:09,0.04,1.90,0.00,23.41,27.27,30.14,4.89,26.57,1020.49,2032.99,2641.35,2806.98,3050.07,350.41,348.88,21.70,0000 0000 0000 0000 000000
2015-05-01 07:07:10,0.02,1.90,0.00,23.42,27.27,30.14,4.81,26.68,1020.51,2032.98,2641.00,2806.73,3050.00,350.21,348.77,21.73,0000 0000 0000 0000 000000
2015-05-01 07:12:12,0.03,1.90,0.00,23.42,27.27,30.13,4.88,26.57,1020.52,2032.98,2640.96,2806.13,3049.97,349.96,348.46,21.76,0000 0000 0000 0000 000000
2015-05-01 07:17:13,0.05,1.90,0.00,23.41,27.27,30.13,4.91,26.66,1020.52,2032.97,2640.36,2806.02,3049.59,350.14,348.85,21.79,0000 0000 0000 0000 000000
2015-05-01 07:22:14,0.01,1.90,0.00,23.43,27.27,30.13,4.79,26.52,1020.52,2032.97,2640.00,2805.99,3049.04,350.17,348.71,21.81,0000 0000 0000 0000 000000
2015-05-01 07:27:16,-0.00,1.90,0.00,23.46,27.27,30.11,4.81,26.55,1020.52,2032.96,2639.97,2805.97,3049.00,350.08,348.66,21.84,0000 0000 0000 0000 000000
2015-05-01 07:32:17,0.06,1.90,0.00,23.45,27.26,30.11,4.82,26.65,1020.52,2032.98,2639.50,2805.56,3048.95,349.78,348.10,21.87,0000 0000 0000 0000 000000
2015-05-01 07:37:18,0.05,1.91,0.00,23.46,27.25,30.11,4.77,26.55,1020.52,2032.96,2639.02,2805.05,3048.35,350.31,348.79,21.90,0000 0000 0000 0000 000000
2015-05-01 07:42:20,0.01,1.91,0.00,23.49,27.25,30.09,4.76,26.43,1020.52,2032.98,2638.75,2804.99,3048.02,350.05,348.72,21.93,0000 0000 0000 0000 000000
2015-05-01 07:47:21,0.05,1.91,0.00,23.52,27.25,30.10,4.81,26.45,1020.53,2032.98,2638.04,2804.63,3047.96,350.04,348.57,21.96,0000 0000 0000 0000 000000
2015-05-01 07:52:23,0.05,1.91,0.00,23.53,27.25,30.10,4.75,26.46,1020.56,2032.97,2637.84,2804.09,3047.39,349.69,348.28,21.99,0000 0000 0000 0000 000000
2015-05-01 07:57:24,0.03,1.91,0.00,23.58,27.25,30.08,4.86,26.51,1020.56,2032.97,2637.11,2804.00,3047.01,350.17,348.71,22.02,0000 0000 0000 0000 000000
2015-05-01 08:02:25,0.00,1.91,0.00,23.62,27.25,30.08,4.80,26.48,1020.71,2032.98,2637.00,2803.96,3046.98,349.66,347.93,22.05,0000 0000 0000 0000 000000
2015-05-01 08:07:26,0.05,1.91,0.00,23.64,27.25,30.05,4.70,26.49,1020.87,2032.95,2636.88,2803.59,3046.47,349.43,347.72,22.08,0000 0000 0000 0000 000000
2015-05-01 08:12:28,0.06,1.91,0.00,23.66,27.25,30.02,4.78,26.48,1020.94,2032.97,2636.20,2803.07,3046.04,349.71,348.10,22.11,0000 0000 0000 0000 000000
2015-05-01 08:17:29,0.01,1.91,0.00,23.70,27.25,30.04,4.79,26.40,1021.01,2032.98,2636.01,2803.00,3046.00,350.27,348.60,22.14,0000 0000 0000 0000 000000
2015-05-01 08:22:30,0.00,1.91,0.00,23.71,27.25,30.00,4.84,26.52,1021.01,2032.96,2635.95,2802.98,3045.93,350.31,348.79,22.17,0000 0000 0000 0000 000000
2015-05-01 08:27:31,0.07,1.92,0.00,23.71,27.25,29.98,4.85,26.52,1021.01,2032.94,2635.23,2802.76,3045.39,350.03,348.50,22.20,0000 0000 0000 0000 000000
2015-05-01 08:32:32,0.04,1.92,0.00,23.73,27.25,29.94,4.69,26.40,1021.03,2032.96,2635.01,2802.15,3045.02,350.17,348.50,22.22,0000 0000 0000 0000 000000
2015-05-01 08:37:33,0.02,1.92,0.00,23.75,27.25,29.95,4.86,26.52,1021.05,2032.96,2634.77,2802.01,3044.99,350.55,348.83,22.25,0000 0000 0000 0000 000000
2015-05-01 08:42:35,0.03,1.92,0.00,23.74,27.26,29.97,4.81,26.38,1021.13,2032.96,2634.07,2801.98,3044.80,349.99,348.53,22.28,0000 0000 0000 0000 000000
2015-05-01 08:47:36,0.04,1.92,0.00,23.73,27.27,29.96,4.85,26.47,1021.22,2032.96,2633.99,2801.69,3044.16,350.34,348.87,22.31,0000 0000 0000 0000 000000
2015-05-01 08:52:37,0.05,1.92,0.00,23.76,27.27,29.95,4.86,26.52,1021.38,2032.92,2633.35,2801.05,3043.99,350.34,348.76,22.34,0000 0000 0000 0000 000000
2015-05-01 08:57:38,0.02,1.92,0.00,23.77,27.27,29.97,4.74,26.40,1021.36,2032.92,2633.00,2800.99,3043.51,349.69,348.12,22.37,0000 0000 0000 0000 000000
2015-05-01 09:02:39,0.04,1.92,0.00,23.77,27.27,30.03,4.77,26.43,1021.12,2032.91,2632.72,2800.66,3043.02,349.64,347.60,22.40,0000 0000 0000 0000 000000
2015-05-01 09:07:41,0.02,1.93,0.00,23.79,27.27,30.01,4.79,26.39,1021.31,2032.73,2632.05,2800.05,3042.96,350.00,348.55,22.43,0000 0000 0000 0000 000000
2015-05-01 09:12:42,0.03,1.93,0.00,23.80,27.27,30.01,4.77,26.41,1021.46,2032.77,2631.94,2800.00,3042.36,350.00,348.46,22.46,0000 0000 0000 0000 000000
2015-05-01 09:17:43,0.05,1.93,0.00,23.80,27.27,30.02,4.81,26.38,1021.49,2032.73,2631.22,2799.87,3042.01,350.17,348.51,22.49,0000 0000 0000 0000 000000
2015-05-01 09:22:44,0.05,1.93,0.00,23.77,27.27,30.00,4.75,26.40,1021.50,2032.76,2630.99,2799.16,3041.97,350.04,348.60,22.52,0000 0000 0000 0000 000000
2015-05-01 09:27:46,0.04,1.93,0.00,23.77,27.27,30.01,4.88,26.50,1021.48,2032.69,2630.33,2799.00,3041.39,350.49,348.86,22.55,0000 0000 0000 0000 000000
2015-05-01 09:32:47,0.02,1.93,0.00,23.77,27.28,30.00,4.69,26.40,1021.43,2032.70,2629.98,2798.91,3041.01,349.75,348.18,22.58,0000 0000 0000 0000 000000
2015-05-01 09:37:49,0.03,1.93,0.00,23.75,27.28,29.96,4.72,26.39,1021.45,2032.65,2629.38,2798.25,3040.92,349.52,348.00,22.61,0000 0000 0000 0000 000000
2015-05-01 09:42:50,0.09,1.93,0.00,23.73,27.28,29.95,4.69,26.35,1021.49,2032.72,2629.00,2798.00,3040.34,349.32,347.82,22.63,0000 0000 0000 0000 000000
2015-05-01 09:47:51,-0.00,1.93,0.00,23.75,27.28,29.99,4.79,26.41,1021.50,2032.64,2628.70,2797.94,3040.01,350.35,348.86,22.66,0000 0000 0000 0000 000000
2015-05-01 09:52:52,0.04,1.94,0.00,23.75,27.28,29.95,4.69,26.46,1021.50,2032.51,2628.04,2797.31,3039.99,349.17,347.66,22.69,0000 0000 0000 0000 000000
2015-05-01 09:57:54,0.03,1.94,0.00,23.75,27.28,29.94,4.88,26.50,1021.50,2032.60,2627.96,2797.04,3039.57,350.38,348.98,22.72,0000 0000 0000 0000 000000
2015-05-01 10:02:55,0.05,1.94,0.00,23.75,27.28,29.95,4.70,26.30,1021.50,2032.57,2627.26,2797.00,3039.02,349.61,348.08,22.75,0000 0000 0000 0000 000000
2015-05-01 10:07:56,0.02,1.94,0.00,23.77,27.29,29.93,4.68,26.47,1021.50,2032.47,2627.00,2796.93,3038.98,349.60,347.96,22.78,0000 0000 0000 0000 000000
2015-05-01 10:12:57,0.07,1.94,0.00,23.77,27.29,29.90,4.86,26.53,1021.50,2032.75,2626.89,2796.57,3038.98,351.23,349.68,22.81,0000 0000 0000 0000 000000
2015-05-01 10:17:59,0.06,1.94,0.00,23.76,27.30,29.90,4.82,26.63,1021.50,2032.88,2626.14,2796.11,3038.82,350.32,348.82,22.84,0000 0000 0000 0000 000000
2015-05-01 10:23:00,0.01,1.94,0.00,23.75,27.30,29.88,4.68,26.49,1021.51,2032.83,2626.00,2796.02,3038.12,349.77,348.24,22.87,0000 0000 0000 0000 000000
2015-05-01 10:28:02,-0.04,1.94,0.00,23.75,27.30,29.91,4.75,26.54,1021.52,2032.65,2625.97,2795.99,3038.00,349.98,348.30,22.90,0000 0000 0000 0000 000000
2015-05-01 10:33:03,0.03,1.94,0.00,23.72,27.30,29.92,4.86,26.66,1021.54,2032.60,2625.52,2795.93,3037.95,350.14,348.55,22.93,0000 0000 0000 0000 000000
2015-05-01 10:38:04,0.06,1.94,0.00,23.70,27.30,29.94,4.78,26.66,1021.69,2032.55,2625.01,2795.26,3037.31,350.06,348.56,22.96,0000 0000 0000 0000 000000
2015-05-01 10:43:05,0.05,1.95,0.00,23.70,27.30,29.97,4.85,26.56,1021.63,2032.53,2624.75,2795.00,3037.00,350.41,349.06,22.99,0000 0000 0000 0000 000000
2015-05-01 10:48:06,0.03,1.95,0.00,23.69,27.30,30.01,4.83,26.65,1021.73,2032.63,2624.05,2794.95,3036.88,349.79,348.32,23.02,0000 0000 0000 0000 000000
2015-05-01 10:53:07,0.05,1.95,0.00,23.67,27.30,30.00,4.80,26.52,1021.93,2032.66,2623.98,2794.64,3036.37,349.96,348.75,23.04,0000 0000 0000 0000 000000
2015-05-01 10:58:08,0.02,1.95,0.00,23.67,27.30,29.97,4.72,26.53,1021.99,2032.46,2623.56,2794.05,3036.02,349.64,348.29,23.07,0000 0000 0000 0000 000000
2015-05-01 11:03:10,-0.03,1.95,0.00,23.65,27.30,30.00,4.79,26.57,1021.97,2032.31,2623.02,2794.00,3035.99,350.22,349.06,23.10,0000 0000 0000 0000 000000
2015-05-01 11:08:11,0.01,1.95,0.00,23.62,27.30,30.06,4.78,26.48,1021.99,2032.17,2623.00,2793.96,3035.72,350.09,349.03,23.13,0000 0000 0000 0000 000000
2015-05-01 11:13:12,0.07,1.95,0.00,23.58,27.30,30.12,4.83,26.57,1021.98,2032.17,2622.59,2793.60,3035.11,350.11,348.96,23.16,0000 0000 0000 0000 000000
2015-05-01 11:18:13,0.02,1.95,0.00,23.55,27.30,30.18,4.75,26.50,1021.99,2032.09,2622.02,2793.06,3035.00,350.11,348.90,23.19,0000 0000 0000 0000 000000
2015-05-01 11:23:15,0.00,1.95,0.00,23.52,27.30,30.18,4.84,26.61,1021.99,2032.07,2622.00,2793.00,3034.98,350.01,349.05,23.22,0000 0000 0000 0000 000000
2015-05-01 11:28:16,0.03,1.95,0.00,23.47,27.30,30.21,4.70,26.57,1021.99,2032.19,2621.91,2793.00,3034.95,350.15,349.36,23.25,0000 0000 0000 0000 000000
2015-05-01 11:33:17,0.05,1.95,0.00,23.45,27.30,30.19,4.78,26.62,1021.99,2032.25,2621.31,2792.98,3034.50,349.65,348.65,23.28,0000 0000 0000 0000 000000
2015-05-01 11:38:18,-0.00,1.95,0.00,23.45,27.30,30.19,4.81,26.57,1021.99,2032.13,2621.01,2792.86,3034.05,350.15,349.10,23.31,0000 0000 0000 0000 000000
2015-05-01 11:43:20,0.05,1.96,0.00,23.41,27.30,30.21,4.75,26.44,1021.99,2032.31,2621.00,2792.62,3034.01,349.53,348.40,23.34,0000 0000 0000 0000 000000
2015-05-01 11:48:21,0.04,1.96,0.00,23.37,27.30,30.18,4.80,26.43,1021.99,2032.27,2620.59,2792.11,3034.00,349.72,349.00,23.37,0000 0000 0000 0000 000000
2015-05-01 11:53:22,0.05,1.96,0.00,23.35,27.29,30.17,4.81,26.48,1021.99,2032.46,2620.04,2792.00,3033.99,349.83,348.88,23.40,0000 0000 0000 0000 000000
2015-05-01 11:58:23,-0.00,1.96,0.00,23.33,27.28,30.18,4.77,26.45,1021.99,2032.55,2620.00,2792.00,3033.94,349.67,348.63,23.43,0000 0000 0000 0000 000000
2015-05-01 12:03:25,0.05,1.96,0.00,23.31,27.27,30.17,4.83,26.39,1022.00,2032.54,2619.89,2791.99,3033.58,350.19,349.49,23.45,0000 0000 0000 0000 000000
2015-05-01 12:08:26,0.06,1.96,0.00,23.28,27.27,30.15,4.83,26.42,1022.02,2032.89,2619.47,2791.99,3033.44,350.14,349.29,23.48,0000 0000 0000 0000 000000
2015-05-01 12:13:27,0.03,1.96,0.00,23.27,27.27,30.16,4.81,26.51,1022.09,2032.93,2619.02,2791.93,3033.07,349.79,349.01,23.51,0000 0000 0000 0000 000000
2015-05-01 12:18:28,0.01,1.96,0.00,23.24,27.25,30.13,4.78,26.46,1022.09,2032.97,2619.00,2791.84,3033.04,349.85,349.02,23.54,0000 0000 0000 0000 000000
2015-05-01 12:23:29,0.03,1.96,0.00,23.21,27.25,30.13,4.78,26.41,1022.21,2032.97,2618.97,2791.35,3033.01,349.72,349.14,23.57,0000 0000 0000 0000 000000
2015-05-01 12:28:31,0.01,1.96,0.00,23.20,27.25,30.13,4.80,26.41,1022.34,2032.98,2618.95,2791.20,3033.00,349.66,348.91,23.60,0000 0000 0000 0000 000000
2015-05-01 12:33:32,0.02,1.96,0.00,23.16,27.24,30.11,4.80,26.46,1022.18,2032.98,2618.57,2791.07,3032.99,350.37,349.86,23.63,0000 0000 0000 0000 000000
2015-05-01 12:38:33,0.02,1.97,0.00,23.14,27.22,30.12,4.77,26.50,1022.09,2032.97,2618.11,2791.01,3032.95,349.72,349.11,23.66,0000 0000 0000 0000 000000
2015-05-01 12:43:34,0.00,1.97,0.00,23.13,27.22,30.13,4.81,26.39,1022.02,2032.98,2618.02,2791.00,3032.91,350.30,349.63,23.69,0000 0000 0000 0000 000000
2015-05-01 12:48:36,0.00,1.97,0.00,23.10,27.22,30.10,4.77,26.48,1022.02,2032.99,2618.01,2791.01,3032.84,349.78,349.13,23.72,0000 0000 0000 0000 000000
2015-05-01 12:53:37,0.02,1.97,0.00,23.09,27.20,30.07,4.81,26.48,1022.08,2032.99,2618.02,2791.01,3032.51,350.18,349.60,23.75,0000 0000 0000 0000 000000
2015-05-01 12:58:38,0.00,1.97,0.00,23.09,27.20,30.07,4.83,26.52,1022.06,2032.99,2618.01,2791.00,3032.07,350.46,349.92,23.78,0000 0000 0000 0000 000000